RH
72 77 76 70 66 64 63 61 59 60 62 64 65 70 60 60 65 44 72 74 71 52 54 46 48 56 50 41 45 42 42 38 24 13 4 4 3 4 5 7 7 7 7
75 70 65 64 62 52 38 27 17 18 26 35 49 59 68 66 57 64 53 78 80 48 15 16 29 35 36 31 32 29 22 16 9 6 4 3 3 3 5 7 8 7 7
73 65 62 57 36 12 5 2 2 4 7 9 12 22 41 59 70 59 66 62 62 90 88 26 13 13 12 10 10 10 9 9 9 8 5 4 4 4 5 7 7 7 7
65 62 49 16 3 2 2 2 2 2 2 2 2 3 6 17 46 71 62 66 67 66 85 89 51 15 10 12 12 12 12 12 11 10 9 6 4 4 5 8 7 6 7
25 18 4 3 3 3 3 3 3 3 3 3 3 3 3 3 4 25 65 64 67 75 78 72 90 47 34 8 11 12 12 14 13 11 11 9 7 6 7 8 7 7 7
4 3 3 4 4 3 3 3 3 3 3 2 2 2 2 2 3 3 11 56 68 67 78 73 53 66 68 19 8 10 10 13 13 10 10 10 9 7 8 8 7 8 7
4 4 4 4 4 4 4 3 3 3 2 2 2 2 2 2 2 2 2 6 39 69 69 76 76 59 82 89 25 7 9 10 11 11 10 11 9 8 8 8 8 8 7
4 4 4 4 4 4 3 3 3 3 2 2 2 3 3 2 2 1 2 2 4 25 62 72 76 73 71 91 93 33 7 9 10 11 10 10 10 8 8 8 8 9 8
4 4 4 4 4 4 3 3 3 3 3 3 3 3 3 2 2 2 1 1 2 3 16 52 70 74 75 77 87 94 35 7 9 10 10 10 11 9 8 8 9 9 9
4 4 4 4 4 4 3 3 3 3 3 3 3 3 3 3 2 2 2 1 1 1 2 11 39 69 75 79 77 78 93 51 9 8 10 10 10 11 10 10 10 8 10
4 4 4 4 4 3 3 3 4 4 4 4 4 3 3 3 3 3 2 2 1 1 1 2 7 28 71 81 82 78 79 94 85 18 8 10 10 10 10 11 10 8 10
4 4 4 4 4 4 3 4 4 4 4 4 4 4 4 4 4 3 3 2 2 2 1 1 1 5 26 74 88 81 77 76 93 86 44 8 10 10 10 8 9 8 10
4 4 4 4 4 4 4 4 4 4 4 4 5 5 5 4 4 4 3 3 3 2 2 1 1 1 4 28 75 84 82 76 80 89 90 66 10 9 10 10 8 8 9
5 5 5 5 5 5 5 5 5 5 5 6 5 5 5 5 4 4 4 4 3 3 2 2 2 1 1 5 98 100 94 95 96 92 86 90 89 25 9 10 11 10 9
6 6 7 7 7 8 8 8 8 8 7 7 7 6 6 6 5 5 5 4 4 3 3 2 2 2 1 1 5 26 100 93 91 89 94 85 93 94 46 10 10 10 11
8 9 10 10 10 10 10 10 10 10 9 9 8 8 7 7 6 6 5 5 4 4 3 2 2 2 2 1 1 4 38 98 98 100 100 99 91 81 93 91 30 10 11
10 10 11 12 12 12 12 11 11 11 11 10 10 9 9 8 7 6 6 6 5 4 3 3 2 2 2 2 1 1 7 33 65 96 98 100 99 91 95 99 95 78 23
12 12 13 13 13 12 12 12 12 11 11 11 11 11 11 10 8 7 7 6 6 4 4 3 2 2 2 2 1 1 2 15 83 100 98 97 99 100 99 92 96 100 97
13 14 13 12 11 10 10 10 10 10 10 9 9 9 10 10 9 8 8 7 6 5 4 2 2 2 2 1 1 1 2 2 14 96 90 100 90 99 100 99 100 100 100
14 14 12 10 10 10 10 10 10 10 10 9 9 9 9 11 11 10 9 8 7 6 4 2 2 2 2 1 1 2 2 2 2 48 100 99 100 100 94 94 99 98 98
14 14 11 11 12 11 11 11 10 10 10 9 8 8 10 12 12 12 10 9 8 6 4 2 2 2 2 2 2 2 2 3 3 3 27 97 100 100 100 100 100 99 99
14 13 12 14 13 12 11 11 11 11 10 9 8 8 11 13 13 13 12 10 9 6 4 2 2 2 2 2 2 2 2 3 4 7 5 31 87 99 99 100 99 99 86
14 14 14 15 14 13 13 13 12 11 10 10 9 10 13 14 14 14 12 11 9 7 4 2 2 3 3 3 2 2 2 2 4 8 14 15 48 92 98 99 100 95 77
16 15 15 16 15 14 15 14 12 12 11 10 10 10 14 15 15 14 13 12 10 7 5 3 3 3 3 3 3 3 3 3 4 11 22 39 48 99 98 99 92 99 83
18 17 16 17 17 16 16 15 12 11 10 11 12 11 16 17 16 15 14 12 10 8 5 3 3 4 4 4 4 3 3 3 3 7 18 31 48 68 83 95 84 38 12
18 18 19 19 21 19 18 15 11 11 11 12 14 14 18 18 17 16 14 13 11 8 6 4 4 4 4 4 4 4 4 4 4 4 8 11 17 24 9 5 5 5 4
Wind_Speed
6 4 4 3 3 5 5 7 7 7 7 6 6 7 8 9 10 11 10 9 11 10 8 7 6 6 5 5 6 6 7 8 10 11 10 10 10 11 11 11 10 10 10
6 2 2 2 5 6 7 8 7 6 5 5 4 3 4 5 6 7 8 7 8 8 10 8 7 6 5 7 7 8 8 8 10 10 8 8 9 9 9 10 10 9 9
5 2 2 4 6 7 7 6 6 5 5 4 3 2 1 1 2 3 4 6 6 7 9 8 9 9 9 9 8 8 9 10 9 8 5 6 7 7 8 8 9 8 9
5 2 2 3 4 4 5 6 6 6 6 6 5 4 3 2 2 2 0 1 4 5 5 6 8 10 10 10 10 9 11 12 10 9 5 4 4 6 7 8 7 8 9
4 3 1 2 3 4 5 5 6 7 7 7 7 5 4 3 4 5 5 3 1 2 3 4 6 7 10 10 10 10 10 11 11 10 8 5 2 4 5 6 5 7 9
5 3 3 3 4 4 5 6 7 8 9 10 10 9 7 4 4 5 7 8 6 5 3 3 4 5 8 9 9 9 10 11 11 10 10 8 6 2 4 4 5 6 8
4 3 3 4 4 5 6 7 8 10 11 12 13 13 13 10 5 3 7 9 10 9 8 5 4 5 6 7 8 9 9 10 11 11 10 9 7 4 2 4 4 5 7
5 3 3 4 5 6 7 7 8 10 11 12 14 15 16 15 12 8 3 7 10 12 12 10 7 5 6 6 7 8 8 9 9 11 12 10 8 6 2 2 4 5 6
4 4 4 4 4 6 6 7 8 9 10 11 12 14 15 16 16 15 10 4 6 11 13 13 11 8 7 8 7 7 8 8 9 9 10 10 8 6 4 1 2 4 6
4 5 4 4 4 5 5 6 6 7 9 10 11 11 13 15 16 17 16 13 7 6 10 14 14 12 10 10 10 8 7 7 7 8 9 10 10 8 5 3 2 2 4
3 4 3 4 4 4 4 4 4 5 7 8 9 10 11 12 13 15 16 16 15 9 6 10 14 14 14 13 13 13 9 6 8 7 7 9 9 9 7 4 3 3 3
4 3 3 3 3 2 2 2 3 6 7 8 9 9 10 10 11 13 14 15 15 15 11 6 9 13 15 16 15 15 14 11 8 8 7 6 7 8 8 7 5 4 3
4 3 2 2 1 0 2 3 3 4 5 7 9 10 10 10 10 10 11 13 14 15 14 12 7 8 13 16 17 19 18 14 10 10 8 7 8 7 7 7 8 6 5
5 5 3 2 1 1 2 3 5 5 6 6 6 7 9 9 10 10 11 11 12 13 13 13 12 10 8 10 10 13 13 17 12 14 12 9 8 9 7 8 7 7 7
5 5 4 4 4 3 4 4 5 6 6 7 7 7 6 7 8 8 9 10 10 11 12 12 12 12 10 8 12 16 13 17 14 13 14 13 11 10 8 8 8 9 9
5 5 5 5 5 5 5 5 6 6 6 6 7 8 8 8 8 7 7 8 9 9 10 10 11 12 12 10 8 11 17 20 15 10 11 16 15 17 12 10 10 10 10
8 7 7 7 6 6 6 5 6 6 7 7 7 8 8 8 9 9 8 8 8 8 8 8 9 10 12 12 10 8 9 21 23 20 22 16 15 19 13 15 13 13 13
10 9 9 9 8 7 6 6 6 6 7 7 8 9 9 9 8 8 8 9 9 9 8 8 8 9 10 11 11 9 7 11 16 13 21 24 15 14 18 21 16 16 18
11 11 10 9 8 7 7 7 7 8 9 9 9 9 8 8 8 8 8 9 9 9 8 8 7 8 9 10 11 10 7 6 16 19 15 15 25 22 14 14 15 16 17
13 12 11 10 9 8 9 9 10 10 11 11 11 11 10 9 8 8 8 8 9 9 8 7 7 7 8 9 9 9 8 4 7 19 18 22 17 19 23 23 14 14 16
14 14 13 12 11 10 10 11 12 13 13 13 13 13 12 11 10 9 8 8 8 8 8 7 6 5 5 6 7 8 8 7 3 8 18 21 22 19 23 13 11 11 13
16 17 15 14 14 13 12 13 14 15 15 15 15 14 13 12 11 10 10 9 8 8 8 7 6 5 4 4 5 6 6 6 7 3 8 18 20 18 14 10 7 11 13
18 18 18 17 16 15 15 16 16 17 17 17 16 15 14 13 12 11 10 10 10 9 8 8 7 6 4 3 3 4 3 5 6 6 5 3 14 17 15 14 7 19 14
19 21 21 20 19 19 18 18 18 18 19 19 18 16 14 14 13 13 12 11 10 10 9 9 9 7 6 4 2 1 1 2 3 4 6 4 5 8 7 10 8 12 12
23 24 24 23 23 21 21 20 20 20 20 20 18 16 15 15 14 14 13 12 11 11 11 11 10 9 7 5 3 1 0 1 1 2 3 5 6 5 2 4 11 15 15
27 27 26 26 25 23 22 22 22 21 21 20 19 17 16 16 15 15 14 13 13 13 12 12 12 11 9 7 5 3 2 1 1 0 1 1 1 1 4 4 6 6 6
Wind_Direction
124 110 83 54 31 18 8 1 359 4 20 31 42 47 53 48 52 52 57 62 61 55 61 62 60 56 42 45 37 24 29 42 40 50 66 71 70 67 66 63 66 64 69
141 133 84 13 350 342 339 335 332 334 346 349 12 38 48 59 50 52 53 40 58 49 45 39 43 31 25 29 19 13 8 34 45 39 54 73 75 69 67 62 60 68 79
158 150 326 331 331 333 345 354 1 1 357 344 340 345 358 8 56 52 58 45 35 35 35 31 35 36 32 34 21 22 12 26 48 54 31 61 79 76 70 65 68 77 90
190 209 288 329 356 3 12 23 29 30 22 9 9 357 319 260 250 239 267 39 32 38 21 22 26 33 24 25 22 21 29 20 33 42 33 35 77 85 73 67 72 91 100
164 154 100 44 35 39 39 43 44 38 31 22 15 6 332 296 249 239 232 233 254 18 13 5 16 14 19 19 16 16 26 35 23 27 21 25 30 77 76 78 85 107 114
120 105 80 68 62 65 66 58 50 42 39 38 33 29 20 338 285 253 239 234 233 241 268 319 336 351 3 13 16 13 20 32 23 21 25 21 5 52 78 74 95 117 124
112 100 94 89 84 79 75 69 62 55 47 45 43 41 35 27 8 295 253 244 236 240 243 266 304 336 348 355 1 12 12 26 22 17 26 26 20 4 94 109 120 134 132
123 117 107 97 90 82 79 75 66 58 53 49 47 42 37 34 31 22 310 256 245 239 243 249 262 287 311 328 345 355 3 25 16 17 19 25 25 20 12 121 145 144 144
136 130 114 99 84 81 76 67 55 49 51 48 43 39 36 36 34 32 22 343 267 251 244 243 250 261 279 297 313 332 345 11 11 17 19 20 22 31 7 19 191 154 163
144 141 132 122 108 94 79 68 53 43 37 37 33 33 34 35 33 31 29 23 356 285 261 252 243 246 259 274 285 296 322 344 359 7 13 18 15 9 17 357 314 233 188
169 155 150 147 128 106 85 62 42 32 27 22 21 19 23 27 26 26 24 25 22 6 291 262 253 241 245 256 271 280 284 311 329 357 12 5 9 10 354 348 326 305 261
189 176 157 157 141 116 83 42 10 359 360 3 5 6 7 10 15 18 18 17 19 18 9 317 270 257 241 243 255 266 275 275 301 324 342 358 357 2 5 345 329 311 275
188 198 196 154 144 44 333 333 337 338 338 342 343 346 351 355 0 6 10 10 8 10 11 5 335 277 254 243 242 256 262 269 272 286 309 328 348 346 347 353 340 314 284
186 181 183 198 213 251 284 302 311 315 321 326 323 324 328 339 347 353 359 1 2 2 3 1 359 339 297 253 204 250 265 275 286 276 289 304 324 329 331 332 336 326 303
202 203 206 215 230 248 263 274 286 296 304 309 315 316 319 322 328 336 345 349 350 353 355 356 353 349 342 306 253 243 232 264 252 273 285 291 295 301 313 318 316 315 311
232 242 254 260 262 264 270 279 288 293 295 301 308 313 318 319 321 324 331 336 336 340 342 343 344 349 348 341 307 266 237 237 250 279 272 271 271 278 287 305 306 302 303
250 258 265 269 271 271 273 278 283 290 299 305 306 304 305 306 311 317 321 323 325 324 328 334 334 336 346 348 341 305 253 234 244 260 261 280 269 266 284 294 289 301 302
252 260 266 269 270 274 276 279 282 287 291 293 295 298 298 298 297 299 304 310 314 316 320 321 327 334 339 337 335 334 293 240 217 246 255 267 287 292 294 291 291 305 285
252 252 257 260 264 269 273 278 283 287 292 296 296 293 290 290 292 294 296 299 302 306 310 316 325 329 334 335 332 333 333 259 231 224 251 269 258 273 288 295 310 292 298
249 246 244 249 259 271 278 283 287 290 295 298 299 297 292 287 283 281 282 287 293 296 297 298 307 318 330 339 342 342 341 328 237 226 237 253 258 276 274 288 304 305 291
244 245 245 253 261 268 274 280 284 288 293 296 297 296 295 292 287 281 275 274 274 276 278 277 282 299 319 334 343 344 352 357 333 235 225 223 240 249 268 275 279 302 326
241 242 248 255 259 262 272 281 283 284 286 287 290 292 290 289 287 284 281 274 269 265 261 257 256 271 297 322 336 346 348 357 356 345 224 223 217 239 269 269 266 300 305
243 243 247 254 257 262 270 279 281 279 279 282 285 287 286 286 284 282 278 275 271 262 252 243 241 248 266 287 315 331 358 359 2 15 29 146 200 195 200 241 254 285 294
245 243 247 254 258 263 272 277 278 277 277 279 283 285 283 281 282 281 279 275 270 265 255 241 237 239 246 252 268 315 19 7 18 47 55 90 134 186 189 213 256 284 296
240 244 244 252 258 264 273 274 277 275 274 275 278 277 274 276 277 277 276 273 268 263 258 250 244 244 247 249 250 259 237 72 85 80 91 88 95 92 92 272 278 289 295
237 241 250 255 262 266 272 271 273 272 270 270 273 271 271 272 275 275 272 269 264 261 256 252 249 247 250 254 255 260 287 342 32 56 106 132 92 356 311 309 305 316 335